Location: Catacaguana
(10.4120°N, 66.7591°W)
Time: 16:41:28
(UTC+00:00)

SL-08 R/B - Visible Passes

Search period start: 25 September 2022 00:00
Search period end: 05 October 2022 00:00
Orbit: 673 x 738 km, 98.5° (Epoch: 25 September)

Date Brightness Start Highest point End Pass type
(mag) Time Alt. Az. Time Alt. Az. Time Alt. Az.
25 Sep 4.1 08:54:42 10° SSE 08:59:09 51° ENE 09:03:36 10° N visible
26 Sep 3.7 09:38:28 10° S 09:42:45 39° WSW 09:47:02 10° NNW visible
27 Sep 4.7 08:44:35 10° SE 08:48:48 37° ENE 08:53:01 10° N visible
27 Sep 7.0 22:41:20 10° WNW 22:42:24 11° WNW 22:43:29 10° W visible
28 Sep 3.3 09:27:53 10° S 09:32:22 55° WSW 09:36:53 10° NNW visible
29 Sep 5.3 08:34:37 10° SE 08:38:28 27° ENE 08:42:20 10° NNE visible
30 Sep 3.1 09:17:26 10° S 09:22:01 78° WSW 09:26:38 10° NNW visible
01 Oct 5.8 08:24:50 10° ESE 08:28:09 20° ENE 08:31:28 10° NNE visible
02 Oct 3.4 09:07:05 10° SSE 09:11:39 75° ENE 09:16:16 10° N visible
03 Oct 6.2 08:15:22 10° ESE 08:17:50 14° ENE 08:20:18 10° NE visible
03 Oct 4.1 09:51:22 10° SSW 09:55:16 28° W 09:59:14 10° NW visible
04 Oct 4.0 08:56:49 10° SSE 09:01:18 53° ENE 09:05:49 10° N visible
